TimeCDT,TemperatureF,Dew PointF,Humidity,Sea Level PressureIn,VisibilityMPH,Wind Direction,Wind SpeedMPH,Gust SpeedMPH,PrecipitationIn,Events,Conditions,WindDirDegrees,DateUTC
12:55 AM,70.3,57.0,63,29.89,10.0,SSE,16.1,24.2,N/A,,Clear,160,2012-10-04 05:55:00
1:55 AM,69.4,56.8,64,29.90,10.0,SSE,13.8,-,N/A,,Clear,160,2012-10-04 06:55:00
2:55 AM,68.7,57.2,67,29.89,10.0,South,15.0,-,N/A,,Clear,170,2012-10-04 07:55:00
3:55 AM,67.6,58.1,71,29.88,10.0,SSE,17.3,-,N/A,,Clear,160,2012-10-04 08:55:00
4:55 AM,66.7,59.5,78,29.89,10.0,South,15.0,-,N/A,,Clear,170,2012-10-04 09:55:00
5:55 AM,64.8,60.1,85,29.91,10.0,SE,11.5,-,N/A,,Clear,140,2012-10-04 10:55:00
6:55 AM,64.4,60.6,88,29.93,10.0,SSE,11.5,-,N/A,,Clear,160,2012-10-04 11:55:00
7:55 AM,63.3,60.8,91,29.95,10.0,SSE,11.5,-,N/A,,Clear,160,2012-10-04 12:55:00
8:55 AM,67.1,63.1,87,30.00,10.0,South,8.1,-,N/A,,Partly Cloudy,180,2012-10-04 13:55:00
9:00 AM,68.0,62.6,83,30.04,10.0,South,6.9,-,N/A,,Partly Cloudy,170,2012-10-04 14:00:00
9:09 AM,68.0,62.6,83,30.01,10.0,South,5.8,-,N/A,,Mostly Cloudy,170,2012-10-04 14:09:00
9:51 AM,69.8,64.4,83,30.03,10.0,SSE,4.6,-,N/A,,Overcast,150,2012-10-04 14:51:00
9:54 AM,69.8,64.4,83,30.02,10.0,SSE,5.8,-,N/A,,Overcast,160,2012-10-04 14:54:00
9:55 AM,69.8,64.2,82,30.02,10.0,South,5.8,-,N/A,,Overcast,170,2012-10-04 14:55:00
10:00 AM,69.8,64.4,83,30.02,10.0,SSE,4.6,-,N/A,,Overcast,150,2012-10-04 15:00:00
10:13 AM,71.6,64.4,78,30.02,10.0,SSE,6.9,-,N/A,,Overcast,150,2012-10-04 15:13:00
10:43 AM,73.4,66.2,78,30.03,10.0,Variable,6.9,-,N/A,,Overcast,0,2012-10-04 15:43:00
10:55 AM,74.5,65.7,74,30.03,10.0,Variable,5.8,-,N/A,,Mostly Cloudy,0,2012-10-04 15:55:00
11:10 AM,75.2,66.2,73,30.04,10.0,Calm,Calm,-,N/A,,Mostly Cloudy,0,2012-10-04 16:10:00
11:39 AM,75.2,64.4,69,30.04,10.0,WSW,5.8,-,N/A,,Mostly Cloudy,240,2012-10-04 16:39:00
11:48 AM,75.2,64.4,69,30.04,10.0,Calm,Calm,-,N/A,,Scattered Clouds,0,2012-10-04 16:48:00
11:55 AM,76.3,64.2,66,30.04,10.0,NNE,3.5,-,N/A,,Scattered Clouds,30,2012-10-04 16:55:00
12:03 PM,77.0,64.4,65,30.04,10.0,Variable,4.6,-,N/A,,Mostly Cloudy,0,2012-10-04 17:03:00
12:33 PM,75.2,64.4,69,30.05,10.0,Calm,Calm,-,N/A,,Mostly Cloudy,0,2012-10-04 17:33:00
12:55 PM,78.1,64.9,64,30.05,10.0,NNW,9.2,-,N/A,,Mostly Cloudy,330,2012-10-04 17:55:00
1:55 PM,77.7,63.0,60,30.05,10.0,North,8.1,-,N/A,,Scattered Clouds,350,2012-10-04 18:55:00
2:55 PM,72.0,56.7,58,30.06,10.0,NNW,20.7,-,N/A,,Scattered Clouds,340,2012-10-04 19:55:00
3:55 PM,70.7,54.7,57,30.08,10.0,North,16.1,-,N/A,,Clear,350,2012-10-04 20:55:00
4:55 PM,68.4,52.5,57,30.09,10.0,North,16.1,-,N/A,,Scattered Clouds,350,2012-10-04 21:55:00
5:55 PM,66.0,51.4,59,30.10,10.0,North,16.1,-,N/A,,Clear,360,2012-10-04 22:55:00
6:55 PM,63.9,51.1,63,30.10,10.0,North,11.5,-,N/A,,Clear,360,2012-10-04 23:55:00
7:55 PM,61.3,50.9,69,30.11,10.0,North,10.4,-,N/A,,Clear,10,2012-10-05 00:55:00
8:10 PM,60.8,51.8,72,30.12,10.0,NNE,8.1,-,N/A,,Mostly Cloudy,20,2012-10-05 01:10:00
8:55 PM,60.8,50.9,70,30.12,10.0,North,11.5,-,N/A,,Mostly Cloudy,10,2012-10-05 01:55:00
9:43 PM,60.8,51.8,72,30.12,10.0,North,11.5,-,N/A,,Scattered Clouds,10,2012-10-05 02:43:00
9:55 PM,59.9,51.1,73,30.12,10.0,North,10.4,-,N/A,,Scattered Clouds,10,2012-10-05 02:55:00
10:55 PM,59.0,51.8,77,30.13,10.0,North,10.4,-,N/A,,Clear,350,2012-10-05 03:55:00
11:55 PM,58.3,52.7,82,30.12,10.0,North,6.9,-,N/A,,Clear,360,2012-10-05 04:55:00